[[{"header":{"parameterUnit":"m.s-1","parameterCategory":1,"la1":30.2991,"la2":30.254,"lo1":-89.0895,"lo2":-89.0444,"dy":0.0017,"dx":0.0017,"nx":28,"ny":28,"refTime":"2025-06-01T09:00:00:Z","depth":0,"parameterNumber":2,"parameterNumberName":"U-component_of_WINDS"},"data":[0,0,0,0,0,0,0,0,0,0,0,0,0,0,0,0,0,0,0,0,0,0,0,0,0,0,0,0,0,0,0,0,0,0,0,0,0,0,0,0,0,0,0,0,0,0,0,0,0,0,0,0,0,0,0,0,0,0,1.8192,1.8194,0,1.843,1.8433,1.8436,1.8548,1.8547,1.8547,1.8547,1.8791,1.8797,1.8804,0,0,0,0,0,0,0,0,0,0,0,0,0,1.7831,1.7837,1.8191,1.8194,1.8197,1.843,1.8433,1.8436,1.8548,1.8547,1.8547,1.8547,1.8789,1.8797,1.8805,0,0,0,0,0,0,0,0,0,0,0,0,0,1.802,1.7839,1.8191,1.8281,1.8291,1.8429,1.8433,1.8437,1.8548,1.8547,1.8547,1.8547,1.8786,1.8796,1.8806,1.8872,0,0,1.8836,1.884,0,0,0,0,0,0,0,0,1.8009,1.8033,1.8265,1.8275,1.8287,1.8459,1.8396,1.8583,1.8548,1.845,1.8547,1.8547,1.8681,1.8699,1.8745,1.8883,1.8894,1.8837,1.8843,1.8847,1.885,0,0,0,0,0,0,0,1.7996,1.8023,1.8286,1.8268,1.8282,1.8309,1.8336,1.8432,1.8564,1.8459,1.8467,1.8494,1.8687,1.8735,1.8751,1.8897,1.8837,1.8845,1.8852,1.8856,1.9103,1.9103,0,0,0,0,0,0,1.7968,1.8012,1.8278,1.8293,1.8145,1.8316,1.8345,1.8404,1.8563,1.8587,1.8494,1.8499,1.8718,1.8739,1.876,1.8849,1.8847,1.8856,1.8862,1.9102,1.9103,1.9103,0,0,0,0,0,0,1.796,1.7991,1.8269,1.8155,1.8192,1.8322,1.8387,1.8409,1.8457,1.859,1.8614,1.8519,1.8718,1.8746,1.8843,1.8859,1.8861,1.887,1.9101,1.9102,1.9103,1.9026,0,0,0,0,0,0,1.7949,1.7987,1.8014,1.8155,1.8198,1.8348,1.8388,1.8414,1.8474,1.8482,1.862,1.8642,1.872,1.8828,1.8853,1.8872,1.8878,1.9101,1.9102,1.9103,1.9027,1.9024,1.9021,0,0,0,0,0,1.7936,1.7983,1.8015,1.8046,1.8234,1.8349,1.8374,1.8463,1.8475,1.8503,1.8588,1.8638,1.8852,1.8837,1.8866,1.8889,1.91,1.9101,1.9103,1.9029,1.9024,1.9021,0,0,0,0,0,0,1.784,1.8003,1.804,1.8134,1.8227,1.8367,1.8405,1.8455,1.8546,1.855,1.8657,1.8687,1.8774,1.8841,1.8821,1.8961,1.8981,1.8988,1.8915,1.8912,1.8908,1.8891,1.8886,0,0,0,0,0,1.783,1.791,1.8047,1.8116,1.8161,1.8275,1.8328,1.8389,1.8489,1.8529,1.8621,1.8716,1.8806,1.8862,1.8951,1.9037,1.9069,1.9067,1.9063,1.906,1.9065,1.9116,1.9117,1.9108,1.9108,1.9108,0,0,1.781,1.7908,1.7952,1.81,1.8179,1.8259,1.8307,1.839,1.845,1.8541,1.8639,1.871,1.8823,1.8915,1.896,1.8974,1.9075,1.9062,1.9058,1.9066,1.9118,1.9118,1.9119,1.9109,1.9108,1.9108,0,0,1.7814,1.7896,1.7964,1.8041,1.8161,1.8236,1.8251,1.8385,1.8436,1.8535,1.8606,1.8678,1.883,1.8908,1.8967,1.9,1.9049,1.9026,1.9008,1.9056,1.9057,1.9058,1.9071,1.9074,1.903,1.903,1.903,0,1.7774,1.7898,1.7991,1.807,1.8133,1.8219,1.8288,1.8359,1.85,1.8542,1.8554,1.8746,1.8828,1.894,1.8948,1.8993,1.9014,1.9011,1.9049,1.9052,1.9054,1.9067,1.9071,1.9027,1.9027,1.9027,1.9028,0,1.7843,1.7927,1.7967,1.8102,1.8169,1.8242,1.8346,1.8403,1.8457,1.8531,1.8631,1.8733,1.8844,1.8875,1.8929,1.8994,1.8999,1.9029,1.9051,1.905,1.9064,1.907,1.9021,1.9023,1.9024,1.9025,0,0,1.7795,1.798,1.7993,1.8055,1.8193,1.826,1.8336,1.8445,1.8492,1.8586,1.8654,1.8779,1.8808,1.8875,1.8938,1.898,1.9,1.9006,1.901,1.9002,1.9079,1.9056,1.906,1.9033,1.9035,1.9036,1.907,0,1.7819,1.7961,1.8047,1.8154,1.8233,1.8315,1.8382,1.8473,1.8543,1.8621,1.8699,1.8786,1.8817,1.8858,1.8904,1.8988,1.9017,1.8987,1.9097,1.91,1.9067,1.9068,1.9044,1.9072,1.9076,1.9077,1.9078,0,1.7866,1.7959,1.8073,1.8201,1.8238,1.8296,1.8403,1.8476,1.8581,1.8629,1.8703,1.8767,1.8851,1.8865,1.8983,1.896,1.901,1.9058,1.9062,1.9076,1.9089,1.9083,1.9083,1.9087,1.9087,1.9086,1.9086,0,1.782,1.7974,1.8062,1.8113,1.8264,1.8303,1.8368,1.8473,1.8533,1.8626,1.8666,1.8767,1.8823,1.89,1.8989,1.8991,1.9098,1.9119,1.9141,1.9139,1.9161,1.9158,1.9169,1.9191,1.9191,1.9191,1.9191,0,1.7839,1.7906,1.8044,1.8098,1.8176,1.8273,1.8347,1.8419,1.8511,1.8581,1.8658,1.8721,1.8835,1.8913,1.8983,1.907,1.9094,1.9136,1.9154,1.913,1.9124,1.9165,1.9166,1.9192,1.9192,1.9192,1.9191,0,1.7802,1.7897,1.7999,1.8133,1.8169,1.822,1.8335,1.8391,1.8465,1.8552,1.8578,1.8695,1.879,1.8887,1.9015,1.9063,1.9148,1.9172,1.9113,1.9123,1.9139,1.9137,1.9177,1.9188,1.9201,1.92,1.92,0,1.7808,1.7861,1.8001,1.8054,1.8117,1.82,1.8261,1.8359,1.842,1.8543,1.8584,1.8685,1.8771,1.892,1.9016,1.9115,1.9143,1.915,1.9158,1.9132,1.9144,1.914,1.9146,1.9147,1.9146,1.9146,1.9145,0,1.7809,1.7853,1.7939,1.8041,1.8112,1.8197,1.8285,1.8323,1.8438,1.8502,1.8601,1.8667,1.8799,1.8898,1.9009,1.9076,1.913,1.9142,1.9152,1.9128,1.9092,1.9113,1.9105,1.9141,1.9141,1.9141,1.9142,1.9142,1.7794,1.7846,1.7952,1.8045,1.8121,1.8201,1.8261,1.8342,1.8426,1.854,1.8593,1.8691,1.8795,1.8949,1.9014,1.9093,1.9108,1.9123,1.9127,1.9129,1.9124,1.9078,1.9114,1.9114,1.9114,1.9114,1.9115,0,1.78,1.7872,1.7956,1.8077,1.815,1.8193,1.8293,1.8351,1.8437,1.8529,1.8612,1.8725,1.8822,1.8925,1.9028,1.9071,1.9099,1.9095,1.9093,1.9108,1.9104,1.9086,1.9071,1.9071,1.9071,1.9071,1.9071,1.9071,1.7811,1.7901,1.7957,1.8085,1.8157,1.8254,1.8307,1.8382,1.8455,1.8578,1.8659,1.8725,1.8822,1.8932,1.9023,1.9051,1.9086,1.9075,1.911,1.9105,1.9108,1.9111,1.9094,1.9082,1.9082,1.9108,1.9108,1.9108]},{"header":{"parameterUnit":"m.s-1","parameterCategory":1,"la1":30.2991,"la2":30.254,"lo1":-89.0895,"lo2":-89.0444,"dy":0.0017,"dx":0.0017,"nx":28,"ny":28,"refTime":"2025-06-01T09:00:00:Z","depth":0,"parameterNumber":3,"parameterNumberName":"V-component_of_WINDS"},"data":[0,0,0,0,0,0,0,0,0,0,0,0,0,0,0,0,0,0,0,0,0,0,0,0,0,0,0,0,0,0,0,0,0,0,0,0,0,0,0,0,0,0,0,0,0,0,0,0,0,0,0,0,0,0,0,0,0,0,-1.6257,-1.6258,0,-1.6344,-1.6345,-1.6346,-1.6305,-1.6302,-1.63,-1.6298,-1.639,-1.6394,-1.6399,0,0,0,0,0,0,0,0,0,0,0,0,0,-1.6059,-1.6063,-1.6257,-1.6258,-1.6259,-1.6344,-1.6345,-1.6346,-1.6305,-1.6302,-1.63,-1.6297,-1.6388,-1.6394,-1.6399,0,0,0,0,0,0,0,0,0,0,0,0,0,-1.6145,-1.6064,-1.6257,-1.6249,-1.6249,-1.6344,-1.6345,-1.6347,-1.6306,-1.6302,-1.6299,-1.6296,-1.6387,-1.6393,-1.64,-1.6509,0,0,-1.6421,-1.6424,0,0,0,0,0,0,0,0,-1.6141,-1.6153,-1.6249,-1.625,-1.625,-1.631,-1.6309,-1.6401,-1.6306,-1.6284,-1.6298,-1.6294,-1.6366,-1.6374,-1.6398,-1.6513,-1.6517,-1.6421,-1.6425,-1.6428,-1.643,0,0,0,0,0,0,0,-1.6135,-1.6149,-1.6292,-1.625,-1.6251,-1.6242,-1.6251,-1.6326,-1.6343,-1.6286,-1.6283,-1.6294,-1.6366,-1.6392,-1.64,-1.6518,-1.6421,-1.6427,-1.6431,-1.6434,-1.6728,-1.6732,0,0,0,0,0,0,-1.6128,-1.6144,-1.6289,-1.6294,-1.6186,-1.6248,-1.6258,-1.6294,-1.6342,-1.6346,-1.6296,-1.6291,-1.6382,-1.6392,-1.6403,-1.6535,-1.6428,-1.6435,-1.6439,-1.6725,-1.6729,-1.6733,0,0,0,0,0,0,-1.6124,-1.6142,-1.6285,-1.6218,-1.6236,-1.6255,-1.6296,-1.6298,-1.6323,-1.635,-1.6353,-1.632,-1.638,-1.6394,-1.6483,-1.6537,-1.6438,-1.6444,-1.672,-1.6726,-1.6731,-1.6799,0,0,0,0,0,0,-1.6119,-1.614,-1.6181,-1.622,-1.624,-1.6363,-1.63,-1.6302,-1.6335,-1.6329,-1.6373,-1.6377,-1.6378,-1.6473,-1.649,-1.6545,-1.6449,-1.6715,-1.6723,-1.6729,-1.6792,-1.6806,-1.6818,0,0,0,0,0,-1.6112,-1.6197,-1.6183,-1.6201,-1.6291,-1.6366,-1.6378,-1.6377,-1.6339,-1.6381,-1.6398,-1.6375,-1.6528,-1.6483,-1.6501,-1.6559,-1.6712,-1.6721,-1.6729,-1.6786,-1.6803,-1.6818,0,0,0,0,0,0,-1.6166,-1.6202,-1.6187,-1.6287,-1.6324,-1.6359,-1.6412,-1.6395,-1.6444,-1.6437,-1.6434,-1.6444,-1.6537,-1.6557,-1.6505,-1.6668,-1.6615,-1.6627,-1.6652,-1.6668,-1.6681,-1.6675,-1.6455,0,0,0,0,0,-1.6189,-1.6246,-1.6275,-1.636,-1.6379,-1.6392,-1.6425,-1.6421,-1.6459,-1.6475,-1.6499,-1.6538,-1.6595,-1.6632,-1.6686,-1.6794,-1.6804,-1.6843,-1.6856,-1.6867,-1.6878,-1.6938,-1.6957,-1.6761,-1.6761,-1.6761,0,0,-1.6238,-1.6265,-1.6301,-1.6372,-1.64,-1.646,-1.6406,-1.6472,-1.6517,-1.6485,-1.6571,-1.659,-1.6633,-1.6733,-1.6778,-1.6752,-1.6934,-1.6877,-1.6886,-1.6892,-1.6949,-1.6967,-1.6984,-1.6767,-1.6766,-1.6765,0,0,-1.6359,-1.6384,-1.6459,-1.6488,-1.653,-1.6538,-1.6556,-1.6594,-1.6605,-1.6691,-1.6669,-1.6723,-1.6821,-1.6853,-1.6882,-1.7016,-1.6997,-1.7033,-1.7103,-1.7161,-1.7177,-1.719,-1.724,-1.7257,-1.7044,-1.7044,-1.7044,0,-1.6415,-1.6504,-1.6499,-1.6567,-1.66,-1.6573,-1.6649,-1.6678,-1.6737,-1.676,-1.673,-1.6853,-1.688,-1.6987,-1.702,-1.7044,-1.7066,-1.7029,-1.7175,-1.7188,-1.7201,-1.7248,-1.7267,-1.7049,-1.7048,-1.7048,-1.7047,0,-1.6571,-1.6634,-1.6689,-1.6745,-1.6784,-1.6856,-1.6864,-1.6903,-1.6896,-1.6908,-1.6997,-1.7028,-1.7088,-1.7113,-1.7107,-1.722,-1.7203,-1.7174,-1.7121,-1.7224,-1.7268,-1.7286,-1.7055,-1.7053,-1.7052,-1.7051,0,0,-1.6729,-1.6782,-1.6803,-1.6829,-1.6874,-1.6922,-1.6994,-1.7052,-1.7087,-1.7128,-1.7189,-1.7272,-1.7246,-1.7279,-1.7276,-1.7327,-1.7433,-1.7292,-1.7293,-1.7319,-1.7562,-1.7585,-1.7606,-1.742,-1.7423,-1.7426,-1.7559,0,-1.6854,-1.6978,-1.6976,-1.7092,-1.715,-1.7125,-1.7188,-1.7223,-1.7236,-1.7288,-1.7303,-1.7363,-1.7322,-1.7342,-1.7392,-1.741,-1.7482,-1.74,-1.7478,-1.7481,-1.747,-1.7628,-1.7653,-1.7777,-1.7576,-1.7579,-1.7581,0,-1.7017,-1.7063,-1.7184,-1.7222,-1.7246,-1.7302,-1.7356,-1.7405,-1.7445,-1.7451,-1.7489,-1.7478,-1.7552,-1.7495,-1.7598,-1.7542,-1.7574,-1.7588,-1.7593,-1.7602,-1.7539,-1.7643,-1.7816,-1.7835,-1.7608,-1.7606,-1.7604,0,-1.7122,-1.7214,-1.7299,-1.7322,-1.7367,-1.7407,-1.7428,-1.7465,-1.75,-1.7547,-1.7571,-1.7626,-1.7657,-1.7701,-1.7706,-1.7664,-1.781,-1.7753,-1.7818,-1.7819,-1.7852,-1.785,-1.8034,-1.7869,-1.7869,-1.7869,-1.7868,0,-1.7263,-1.7339,-1.7347,-1.7399,-1.7484,-1.7481,-1.7565,-1.7583,-1.7615,-1.7672,-1.7653,-1.7707,-1.7709,-1.7765,-1.7769,-1.7855,-1.7868,-1.7876,-1.7877,-1.7879,-1.7879,-1.7901,-1.7894,-1.7874,-1.7872,-1.7872,-1.7871,0,-1.7396,-1.7404,-1.7495,-1.753,-1.7541,-1.7602,-1.7632,-1.7683,-1.7694,-1.7766,-1.7782,-1.78,-1.7864,-1.7873,-1.7948,-1.7951,-1.8055,-1.8045,-1.8041,-1.8041,-1.8106,-1.81,-1.8312,-1.8341,-1.8156,-1.8158,-1.8159,0,-1.7486,-1.7543,-1.7585,-1.7621,-1.7644,-1.7702,-1.7738,-1.7738,-1.7776,-1.7826,-1.7871,-1.7933,-1.7983,-1.8087,-1.8108,-1.8165,-1.8159,-1.8229,-1.8167,-1.8168,-1.8162,-1.8159,-1.8166,-1.8241,-1.8243,-1.8245,-1.8246,0,-1.7646,-1.7647,-1.7699,-1.7753,-1.7797,-1.7839,-1.7879,-1.791,-1.7916,-1.796,-1.8025,-1.8064,-1.814,-1.8203,-1.826,-1.8283,-1.8267,-1.8265,-1.8284,-1.8288,-1.8284,-1.8289,-1.8076,-1.8261,-1.8259,-1.8258,-1.8258,-1.8257,-1.7761,-1.7812,-1.7849,-1.7908,-1.7938,-1.7976,-1.8026,-1.8043,-1.8097,-1.8159,-1.8155,-1.8228,-1.8267,-1.8342,-1.8369,-1.8426,-1.8403,-1.8429,-1.8437,-1.8444,-1.8451,-1.8273,-1.8436,-1.8436,-1.8435,-1.8435,-1.8435,0,-1.7922,-1.7945,-1.7999,-1.8056,-1.8103,-1.8081,-1.8125,-1.8166,-1.8229,-1.8267,-1.8316,-1.8392,-1.8452,-1.8477,-1.8537,-1.8578,-1.8573,-1.8594,-1.8593,-1.8598,-1.8467,-1.8446,-1.8598,-1.8598,-1.8598,-1.8598,-1.8598,-1.8598,-1.8012,-1.8096,-1.8102,-1.8202,-1.8224,-1.8294,-1.8322,-1.8357,-1.8387,-1.8472,-1.8522,-1.8538,-1.8571,-1.8633,-1.8688,-1.8694,-1.8718,-1.8744,-1.8747,-1.8624,-1.8607,-1.8592,-1.8572,-1.8748,-1.8749,-1.8874,-1.8875,-1.8876]}]]